Location: Newark
(22.3060°N, 114.2134°E)
Time: 21:52:42
(UTC+00:00)

Explorer 11/Cluster Stage 4 - Pass Details

Date: 01 August 2021
Orbit: 467 x 1256 km, 28.8° (Epoch: 26 September)

Event Time Altitude Azimuth Distance (km) Brightness Sun altitude
Rises 01:11:30 0° 257° (WSW) 3,996 9.8 43.5°
Reaches altitude 10° 01:14:15 10° 258° (WSW) 3,107 9.3 44.2°
Maximum altitude 01:22:14 75° 344° (NNW) 1,288 8.4 46.0°
Drops below altitude 10° 01:30:27 10° 69° (ENE) 3,184 10.6 47.9°
Sets 01:33:17 0° 71° (ENE) 4,099 10.9 48.6°
